EW9842 Weather Reports


time (UTC)temp
F
wind
direction
speed
knots
gust
knots
rain 1hr
in
rain 24hr
in
rain mn
in
humidity
%
barometer
mb
20260509211536 71 291 3.5 9.6 0.00 0.00 0.00 48 1022.0
20260509210149 71 300 4.3 10.4 0.00 0.00 0.00 48 1022.2
20260509204537 70 325 2.6 9.6 0.00 0.00 0.00 49 1022.4
20260509203033 69 314 2.6 7.8 0.00 0.00 0.00 51 1022.4
20260509201531 68 341 3.5 8.7 0.00 0.00 0.00 53 1022.6
20260509200144 68 335 4.3 8.7 0.00 0.00 0.00 53 1022.8
20260509194532 67 345 2.6 7.0 0.00 0.00 0.00 53 1023.0
20260509193107 67 354 3.5 7.8 0.00 0.00 0.00 53 1023.2
20260509191534 66 307 3.5 7.8 0.00 0.00 0.00 52 1023.2
20260509190036 66 298 2.6 7.8 0.00 0.00 0.00 53 1023.4
20260509184536 65 304 3.5 8.7 0.00 0.00 0.00 53 1023.6
20260509181537 63 341 2.6 8.7 0.00 0.00 0.00 54 1023.9
20260509180034 63 312 3.5 7.0 0.00 0.00 0.00 52 1023.8
20260509173031 62 332 3.5 7.0 0.00 0.00 0.00 50 1023.8
20260509171534 61 339 3.5 7.8 0.00 0.00 0.00 52 1023.9
20260509170037 60 341 2.6 6.1 0.00 0.00 0.00 52 1024.0
20260509164537 60 344 2.6 6.1 0.00 0.00 0.00 50 1024.1
20260509161643 59 350 1.7 5.2 0.00 0.00 0.00 50 1024.3
20260509160032 60 24 0.9 3.5 0.00 0.00 0.00 50 1024.3
20260509154529 59 50 0.9 3.5 0.00 0.00 0.00 50 1024.4
20260509153152 59 58 0.9 3.5 0.00 0.00 0.00 51 1024.4
20260509151535 57 66 0.9 2.6 0.00 0.00 0.00 54 1024.3
20260509150031 55 118 0.9 3.5 0.00 0.00 0.00 59 1024.3
20260509144534 52 113 1.7 3.5 0.00 0.00 0.00 65 1024.3
20260509143142 47 119 1.7 3.5 0.00 0.00 0.00 72 1024.4
20260509141537 44 131 2.6 5.2 0.00 0.00 0.00 76 1024.3
20260509140030 42 158 2.6 4.3 0.00 0.00 0.00 79 1024.2
20260509134636 41 160 2.6 4.3 0.00 0.00 0.00 81 1024.1
20260509133148 40 162 2.6 5.2 0.00 0.00 0.00 83 1024.1
20260509130031 41 163 2.6 4.3 0.00 0.00 0.00 82 1023.8
20260509123034 41 156 3.5 6.1 0.00 0.00 0.00 83 1023.6
20260509121531 41 133 3.5 4.3 0.00 0.00 0.00 84 1023.6
20260509120035 42 151 3.5 4.3 0.00 0.00 0.00 83 1023.7
20260509114531 41 149 3.5 5.2 0.00 0.00 0.00 84 1023.6
20260509113030 42 152 2.6 4.3 0.00 0.00 0.00 83 1023.7
20260509111537 43 163 2.6 5.2 0.00 0.00 0.00 83 1023.7
20260509110030 43 147 3.5 6.1 0.00 0.00 0.00 83 1023.6
20260509104643 43 146 2.6 5.2 0.00 0.00 0.00 83 1023.7
20260509103035 44 141 2.6 6.1 0.00 0.00 0.00 83 1023.8
20260509101530 43 138 3.5 7.0 0.00 0.00 0.00 84 1023.8
20260509100034 43 142 2.6 6.1 0.00 0.00 0.00 84 1024.0
20260509094608 44 150 1.7 5.2 0.00 0.00 0.00 82 1024.0
20260509093030 44 154 3.5 6.1 0.00 0.00 0.00 82 1024.2
20260509091534 45 152 4.3 7.0 0.00 0.00 0.00 80 1024.3
20260509090034 46 150 3.5 7.0 0.00 0.00 0.00 80 1024.4
20260509084533 46 136 4.3 8.7 0.00 0.00 0.00 81 1024.6
20260509083034 45 130 4.3 7.8 0.00 0.00 0.00 82 1024.8
20260509081531 45 142 3.5 6.1 0.00 0.00 0.00 82 1024.9
20260509080030 46 139 2.6 6.1 0.00 0.00 0.00 82 1025.0
20260509074608 45 138 3.5 7.0 0.00 0.00 0.00 83 1025.2
20260509073031 45 138 3.5 6.1 0.00 0.00 0.00 84 1025.3
20260509071535 45 156 4.3 6.1 0.00 0.00 0.00 83 1025.3
20260509070105 46 150 3.5 6.1 0.00 0.00 0.00 82 1025.4
20260509064532 47 178 1.7 3.5 0.00 0.00 0.00 79 1025.5
20260509063035 49 253 0.9 4.3 0.00 0.00 0.00 76 1025.5
20260509061533 50 342 0.0 3.5 0.00 0.00 0.00 75 1025.5
20260509060037 50 58 1.7 4.3 0.00 0.00 0.00 74 1025.5
20260509054532 52 48 0.9 2.6 0.00 0.00 0.00 70 1025.4
20260509051530 51 41 2.6 7.8 0.00 0.00 0.00 71 1025.4
20260509044531 52 42 0.9 4.3 0.00 0.00 0.00 69 1025.1
20260509043032 52 299 0.9 5.2 0.00 0.00 0.00 68 1025.0
20260509041536 52 273 0.9 6.1 0.00 0.00 0.00 67 1024.8
20260509040031 53 293 1.7 5.2 0.00 0.00 0.00 65 1024.7
20260509034535 54 277 1.7 6.1 0.00 0.00 0.00 63 1024.5
20260509033033 55 250 1.7 7.0 0.00 0.00 0.00 60 1024.4
20260509031606 56 251 2.6 7.0 0.00 0.00 0.00 58 1024.2
20260509030034 57 268 3.5 9.6 0.00 0.00 0.00 56 1024.0
20260509024532 58 266 5.2 9.6 0.00 0.00 0.00 53 1024.0
20260509021528 61 264 3.5 11.3 0.00 0.00 0.00 47 1023.7
20260509020031 62 264 5.2 12.2 0.00 0.00 0.00 45 1023.7
20260509014532 62 270 6.1 12.2 0.00 0.00 0.00 43 1023.6
20260509013036 63 265 6.1 15.6 0.00 0.00 0.00 41 1023.6
20260509011536 63 271 6.1 14.8 0.00 0.00 0.00 40 1023.5
20260509010035 64 263 7.8 18.2 0.00 0.00 0.00 38 1023.3
20260509004532 66 263 6.1 17.4 0.00 0.00 0.00 36 1023.3
20260509003107 67 254 5.2 11.3 0.00 0.00 0.00 36 1023.2
20260509001605 67 226 4.3 12.2 0.00 0.00 0.00 34 1023.1
20260508234528 67 222 5.2 18.2 0.00 0.00 0.00 34 1023.0
20260508233142 67 220 7.0 15.6 0.00 0.00 0.00 32 1022.9
20260508231534 69 219 7.0 16.5 0.00 0.00 0.00 31 1022.8
20260508230035 68 232 4.3 12.2 0.00 0.00 0.00 30 1022.7
20260508223144 68 228 7.8 18.2 0.00 0.00 0.00 28 1022.7
20260508221536 68 270 7.0 17.4 0.00 0.00 0.00 27 1022.5
20260508220033 68 265 7.8 17.4 0.00 0.00 0.00 26 1022.5
20260508214530 69 254 5.2 14.8 0.00 0.00 0.00 25 1022.6
20260508213150 68 227 3.5 9.6 0.00 0.00 0.00 24 1022.6